Voltar ao catálogo

STARLINK-30902

AtivoComunicaçõesVLEO
NORAD 58421·PAYLOAD·🇺🇸 United States

Lançado Nov 22, 2023 de Cape Canaveral Space Force Station

Loading…

Próximas Passagens (próximas 24 horas)

TLE

AtualizadoSource: CelesTrak SupGP

Época: Sep 14, 2026, 21:39 UTC

1 58421C 23180V   26257.90256944  .00027151  00000+0  98136-3 0  2577
2 58421  43.0013  63.9303 0001347 265.6147 112.1733 15.27632956    18

Acompanhe STARLINK-30902 em tempo real com AllMySat

Download on the App Store